Location: Madrid
(40.4000°N, 3.6830°W)
Time: 01:07:10
(UTC+01:00)

ISS - Pass Details

Date: 22 February 2020
Orbit: 415 x 422 km, 51.6° (Epoch: 27 February)

Event Time Altitude Azimuth Distance (km) Brightness Sun altitude
Exits shadow 06:39:43 10° 202° (SSW) 1,498 -1.2 -15.9°
Reaches altitude 10° 06:39:44 10° 202° (SSW) 1,491 -1.2 -15.9°
Maximum altitude 06:42:48 33° 136° (SE) 721 -2.2 -15.3°
Drops below altitude 10° 06:45:53 10° 70° (ENE) 1,504 0.2 -14.8°
Sets 06:48:06 0° 61° (ENE) 2,373 1.1 -14.3°
